RH
11 11 11 12 17 28 51 82 86 85 79 82 66 32 14 55 83 32 53 43 48 69 71 71 73 78 85 92 79 63 36 24 40 41 40 31 30 33 24 16 20 13 16 15 12
11 9 10 13 23 31 44 75 87 80 76 78 78 76 46 23 65 89 34 50 46 39 68 72 70 70 72 77 92 88 59 45 56 54 44 37 35 36 32 29 23 22 17 18 15
11 8 10 16 26 36 58 76 93 72 58 58 60 67 76 54 32 56 59 32 49 45 34 60 71 69 68 68 69 70 72 67 66 53 43 44 44 37 36 29 29 27 20 24 20
10 9 14 22 35 43 66 77 86 80 47 48 47 53 60 63 53 32 27 24 43 51 44 35 53 67 68 65 65 64 68 77 78 63 48 53 50 40 43 38 32 25 24 24 22
10 11 24 36 43 48 58 52 47 62 72 34 36 38 37 43 48 57 32 29 20 51 49 46 36 42 60 63 64 63 60 63 69 73 71 57 47 44 45 38 38 26 31 28 24
10 14 34 48 50 39 25 20 19 17 14 29 19 22 25 28 46 52 60 31 34 21 36 51 44 37 41 51 57 59 61 58 58 60 56 79 65 52 43 42 40 32 35 32 27
9 17 39 45 39 35 37 36 34 32 26 24 22 18 17 17 19 40 57 59 35 41 33 46 60 46 37 38 44 51 52 57 55 54 54 53 56 54 45 42 41 36 35 33 30
10 18 38 41 38 36 32 30 32 32 31 30 27 25 27 20 9 12 38 60 56 40 49 58 51 56 41 36 34 39 43 45 48 51 51 50 44 46 45 42 41 40 38 35 32
11 25 32 35 34 30 25 22 19 18 18 18 24 24 25 23 20 10 10 43 66 69 88 87 97 40 58 42 35 34 35 37 38 40 42 43 40 41 40 40 38 36 35 33 31
17 27 32 32 28 24 20 17 15 13 11 11 11 12 18 18 18 12 9 11 44 73 99 98 99 93 45 54 32 31 33 33 33 33 34 34 36 36 36 33 30 28 29 28 26
18 27 30 28 22 17 14 10 6 4 3 3 3 6 5 5 13 15 10 9 11 53 82 96 96 78 67 43 54 42 41 43 38 36 28 28 29 29 28 30 27 24 23 23 19
21 26 28 23 17 12 7 3 2 2 2 5 5 4 5 7 4 8 9 10 9 9 31 54 77 82 89 63 56 59 40 38 48 34 27 26 23 27 25 22 23 21 19 17 14
24 31 26 19 12 5 2 2 4 8 8 21 27 13 60 81 7 20 10 9 11 10 9 13 28 98 100 74 60 67 50 47 48 42 29 28 22 21 22 20 19 17 17 16 13
33 28 22 14 5 2 3 11 48 83 45 42 54 72 50 81 25 79 91 69 52 16 10 10 15 56 100 98 48 73 67 63 56 43 42 33 22 20 22 18 17 16 15 16 13
30 24 17 9 3 4 14 45 87 100 71 67 100 100 86 64 71 46 91 100 83 18 19 13 12 19 97 94 53 74 92 73 66 48 48 34 25 20 20 18 16 15 20 20 17
27 21 13 3 3 9 48 75 97 100 83 70 99 100 96 82 74 100 100 100 99 100 41 22 23 64 67 99 93 41 100 86 68 61 42 36 28 20 21 18 20 24 21 23 21
24 17 6 3 5 32 73 99 93 89 88 87 100 96 100 100 96 75 100 100 100 100 98 84 79 31 39 95 100 69 74 99 81 62 29 34 35 24 24 21 21 26 23 23 29
22 11 3 3 18 69 100 97 80 78 94 99 100 100 100 100 100 92 70 92 100 100 100 99 89 88 24 53 90 81 37 91 81 53 38 43 28 26 27 23 21 28 25 28 27
18 5 3 11 30 99 100 85 72 96 100 100 100 98 95 100 99 98 100 91 85 96 100 100 93 98 48 32 50 97 78 48 84 71 58 40 31 31 32 30 28 27 26 30 30
11 4 4 18 55 100 90 64 88 100 100 100 98 100 100 100 100 96 95 98 100 100 99 100 100 97 64 38 56 90 100 71 55 95 70 51 42 42 34 40 31 30 28 30 30
6 4 8 19 86 100 76 73 99 89 91 100 100 99 100 100 100 99 95 100 100 100 92 100 100 100 98 51 28 57 89 91 69 76 97 87 62 48 40 37 37 31 32 28 28
5 4 8 24 35 58 82 94 80 73 93 91 100 95 90 100 100 95 100 98 89 100 98 95 100 100 100 99 80 32 39 89 87 74 93 100 90 80 57 38 38 37 32 31 27
5 8 12 34 43 68 66 70 60 80 100 91 100 100 93 100 100 99 95 100 96 72 86 98 99 100 100 100 100 46 25 58 82 82 85 100 100 97 96 44 38 40 38 34 34
7 11 26 53 68 58 74 60 78 83 86 93 97 89 97 100 95 73 100 82 84 86 88 90 93 94 96 76 86 69 23 24 42 46 66 88 100 100 100 54 48 38 40 39 36
10 20 37 58 69 93 93 75 63 71 64 75 60 74 93 99 92 98 100 95 100 80 100 100 81 89 84 89 90 72 39 22 20 25 28 54 92 100 100 82 60 50 42 40 42
12 26 51 56 71 95 87 92 48 57 57 46 67 56 80 98 88 100 92 100 96 75 100 98 89 100 97 88 73 78 54 28 17 16 13 17 49 100 98 94 73 60 52 42 42
19 33 54 48 52 56 63 70 85 72 97 76 62 40 58 87 100 100 100 88 99 100 98 78 96 99 99 88 93 84 51 33 22 16 14 10 18 78 97 92 78 67 54 54 48
Wind_Speed
58 57 48 46 45 44 45 43 43 43 44 43 41 46 48 47 47 40 40 40 42 42 41 41 39 39 40 45 42 43 43 41 37 36 36 39 35 34 36 34 30 34 27 25 28
60 54 47 46 47 46 44 41 41 40 43 42 43 41 47 51 50 46 42 43 42 44 44 43 41 41 41 42 46 46 44 39 36 40 40 45 37 37 36 35 35 35 31 31 32
61 54 48 48 47 43 41 38 37 38 42 44 45 45 42 48 51 52 47 44 45 44 45 47 47 45 44 45 44 45 47 41 41 42 40 42 33 37 37 37 35 36 35 34 34
59 52 50 49 44 40 38 34 35 36 38 42 44 45 44 42 47 53 47 45 47 47 47 46 50 49 47 47 46 46 45 45 45 43 42 42 40 44 38 39 38 38 37 35 35
60 54 50 46 42 39 37 36 35 35 35 38 41 43 44 42 39 50 52 50 45 50 48 47 48 51 51 49 48 48 48 48 47 45 43 41 43 44 39 43 40 42 36 37 37
60 54 49 45 43 41 38 37 39 38 36 38 40 42 42 41 36 40 48 54 50 47 50 50 49 48 50 52 51 51 50 50 49 46 44 48 48 46 42 45 41 43 38 41 38
60 54 49 47 45 42 43 45 44 45 45 43 43 44 44 36 36 37 42 49 51 51 49 50 52 52 51 53 55 54 53 52 50 49 47 48 48 46 48 46 42 44 41 42 40
60 54 51 48 47 46 49 50 49 49 51 51 51 51 48 44 41 38 42 45 50 50 50 53 54 56 55 53 53 55 54 53 51 51 49 50 47 48 47 48 45 45 43 43 44
61 56 52 51 51 52 53 54 54 55 57 58 58 59 53 50 48 44 44 45 47 53 53 53 53 54 55 53 53 54 54 51 51 51 51 49 46 47 46 48 45 45 45 44 45
60 56 56 54 54 56 59 60 61 61 62 63 64 65 59 56 56 52 49 50 50 50 57 56 59 52 55 57 58 51 52 50 50 51 49 48 47 45 46 46 44 45 45 44 45
60 58 59 58 60 64 67 66 65 68 69 66 67 69 65 60 59 61 55 56 55 53 55 50 61 60 53 53 51 48 49 46 47 47 49 49 49 45 45 44 45 45 44 45 42
61 61 62 63 66 71 72 71 68 66 63 54 54 60 58 56 62 64 63 59 59 58 58 60 54 64 61 56 53 49 51 48 44 50 52 48 49 44 45 44 45 43 43 42 42
62 63 66 67 73 74 70 63 54 48 49 26 34 41 40 44 53 60 63 59 59 60 60 58 51 46 65 61 57 53 52 46 46 53 50 46 49 48 45 44 43 43 43 42 41
62 65 69 73 73 68 60 45 34 29 35 19 17 17 28 42 49 48 44 43 49 61 58 58 54 50 53 62 55 57 51 47 48 53 47 47 51 46 45 46 43 45 44 42 38
64 68 73 75 68 60 47 33 21 21 27 10 6 7 10 27 31 44 39 37 45 59 62 59 57 55 51 54 52 56 49 49 49 52 47 48 52 44 47 46 45 44 43 38 35
66 71 74 68 62 47 29 22 15 16 14 7 3 4 4 12 32 50 42 34 30 38 54 56 55 47 50 44 50 48 49 51 51 52 53 49 53 46 47 43 42 41 39 39 37
69 73 71 63 51 33 19 14 14 10 8 4 6 5 6 8 21 42 54 46 32 45 38 43 43 50 52 50 49 45 52 50 52 55 58 52 53 46 47 44 43 41 40 40 38
70 71 64 56 38 19 13 15 11 8 8 9 5 6 11 12 13 20 36 48 42 37 42 43 46 41 56 53 49 54 53 57 58 58 56 54 57 52 44 39 38 38 37 40 40
70 67 59 45 28 10 14 12 8 7 9 10 9 7 10 11 14 18 23 30 43 45 37 41 45 49 48 48 47 50 50 49 55 56 56 56 54 52 39 38 28 38 37 40 39
68 62 51 39 16 13 13 12 8 9 8 9 8 8 11 8 9 11 21 36 35 41 44 19 37 43 46 48 43 46 44 45 52 53 55 55 51 50 41 39 35 33 38 40 39
64 55 47 30 9 13 15 9 9 12 11 7 6 11 11 8 8 10 18 24 33 35 48 41 31 34 44 51 53 50 48 53 49 54 55 51 48 46 43 41 37 35 36 41 40
60 49 41 24 14 9 9 7 7 12 13 7 11 14 15 9 6 13 16 21 29 35 37 50 45 33 24 31 44 50 45 45 52 50 55 50 41 32 35 43 39 38 38 38 41
52 44 32 18 10 9 9 9 10 10 6 12 9 12 15 12 10 10 15 17 20 25 36 42 49 49 48 38 35 51 51 51 48 50 53 46 39 33 27 34 41 37 38 40 39
47 37 21 12 9 6 10 10 7 6 7 11 10 15 13 16 12 14 7 19 16 19 22 36 45 48 47 38 36 43 49 51 53 51 52 53 43 36 29 40 33 40 38 40 41
40 28 18 4 3 5 9 10 5 3 11 10 10 18 14 12 15 15 11 11 17 18 23 29 31 40 41 42 34 41 46 48 53 52 53 48 49 38 35 31 32 34 39 40 39
34 22 11 4 5 8 10 7 7 7 6 14 17 15 18 14 14 6 15 17 17 18 14 18 27 28 35 40 39 33 42 48 53 52 53 49 48 46 44 31 37 30 35 39 37
28 18 14 8 10 13 12 10 9 10 9 7 10 23 23 21 17 13 16 21 15 12 21 22 20 28 26 25 34 41 40 48 50 53 54 57 51 48 53 46 37 36 33 38 40
Wind_Direction
321 320 313 306 298 290 286 280 272 268 267 265 257 248 249 252 244 249 243 238 235 235 233 230 230 229 232 224 222 232 233 228 223 221 223 230 225 224 226 229 229 232 223 227 229
322 318 310 304 296 297 292 286 274 271 270 269 267 257 248 247 246 242 244 241 239 235 233 233 230 230 229 229 231 228 233 234 226 223 220 228 221 224 227 227 227 231 224 227 231
322 321 311 303 302 300 295 285 277 270 270 269 267 265 255 248 243 241 241 242 239 238 234 232 232 230 230 229 230 237 228 234 229 229 225 233 226 228 231 230 229 230 228 227 230
325 317 310 306 306 301 293 285 281 268 267 266 265 266 263 255 249 242 240 236 238 238 236 234 233 231 230 230 230 229 232 231 236 232 228 228 225 229 229 232 231 230 232 231 234
326 317 309 307 305 301 293 286 280 277 267 269 264 261 260 260 253 247 238 236 234 236 236 235 235 232 231 230 231 229 227 227 230 233 233 230 229 233 230 234 231 233 235 236 236
324 315 310 306 301 296 289 284 284 280 273 268 265 263 259 256 250 248 241 236 235 233 233 234 235 233 230 232 229 231 229 228 229 228 228 232 231 233 233 238 235 236 233 239 239
324 313 309 306 300 296 293 288 282 277 273 266 263 261 257 254 252 246 242 236 235 233 231 233 230 232 230 229 229 228 230 229 229 229 228 230 231 233 235 238 237 239 238 240 241
321 314 311 307 302 297 294 289 284 278 274 268 263 259 250 253 250 245 242 238 233 231 231 229 231 229 229 231 230 231 230 230 230 231 230 231 230 232 232 236 239 239 239 241 244
321 316 312 308 304 299 293 288 285 280 276 271 265 261 253 248 247 246 240 235 233 229 228 228 228 231 229 229 232 229 231 230 230 233 232 231 230 234 234 236 237 240 241 242 244
320 316 314 312 305 299 295 291 289 285 278 271 266 262 257 250 245 241 237 233 230 230 229 224 226 224 227 227 229 232 232 231 229 232 231 232 232 231 233 235 235 238 239 241 243
319 316 315 313 309 305 304 301 296 290 283 276 267 260 256 246 240 238 233 232 230 228 226 229 230 229 226 229 229 230 233 231 235 231 232 231 231 231 232 233 236 237 238 239 242
319 319 317 315 312 312 309 305 300 293 284 276 267 260 254 243 236 234 235 228 228 230 229 230 230 229 227 226 227 227 229 229 230 233 230 227 230 229 232 231 234 234 237 237 237
322 321 319 318 317 315 312 309 302 294 287 284 266 253 239 234 227 226 233 228 224 226 229 233 231 233 224 223 223 224 225 225 228 234 232 230 229 227 230 231 229 233 234 235 236
324 323 322 322 320 318 316 310 299 291 292 302 266 278 252 234 224 208 219 223 217 222 224 229 231 227 223 221 219 220 226 223 226 230 233 230 231 226 225 229 227 230 233 235 235
326 326 325 325 323 321 318 309 303 294 301 300 322 312 296 225 215 214 212 223 214 220 219 223 224 228 227 218 218 216 222 225 225 229 229 227 235 220 227 229 227 227 232 232 227
329 328 329 328 325 324 315 304 287 292 296 291 247 308 308 225 207 190 189 191 219 209 217 222 225 222 227 226 214 214 219 223 224 228 228 227 232 222 226 225 229 229 229 227 222
330 331 331 329 328 325 312 290 291 288 312 224 211 189 179 182 206 207 189 186 205 207 204 211 217 222 223 224 218 210 214 219 223 226 226 224 230 226 222 224 222 226 225 223 220
331 334 334 332 331 324 300 295 293 278 251 236 235 252 190 179 201 207 214 214 209 206 208 206 207 219 219 223 226 212 213 217 219 224 228 226 229 232 225 225 222 225 226 221 222
334 337 336 335 333 321 305 311 293 241 243 231 236 189 196 189 199 219 212 202 215 212 211 214 216 218 223 221 222 219 215 219 222 224 228 226 229 233 225 232 223 225 222 221 223
337 340 338 334 333 308 310 311 258 267 243 229 224 202 194 222 211 228 212 198 210 208 207 206 218 226 225 219 214 218 216 218 218 223 228 231 232 236 225 226 226 218 222 221 223
341 342 340 336 318 296 308 304 273 245 232 211 225 212 203 220 214 216 207 213 216 207 206 198 198 201 226 224 220 221 215 211 216 220 225 230 235 236 228 225 223 219 221 223 224
344 343 342 340 335 341 343 317 294 268 224 226 219 209 217 260 147 207 205 204 219 217 209 213 214 209 218 222 224 222 222 225 222 215 221 224 228 235 235 223 218 219 217 222 223
345 347 344 350 3 47 25 343 306 231 222 222 221 204 220 229 229 207 214 209 221 225 219 212 217 219 225 225 219 219 218 220 221 222 223 224 221 227 233 225 220 215 218 220 223
346 350 351 14 62 47 7 355 357 230 228 229 225 229 211 203 208 203 215 214 214 213 214 222 220 220 226 231 230 226 216 217 224 224 221 220 212 212 215 227 221 217 218 220 221
346 352 356 48 19 10 349 1 347 300 239 253 239 232 228 198 202 214 215 217 197 192 195 210 219 223 226 232 231 223 217 217 223 225 226 222 217 210 212 209 216 215 216 219 220
344 346 353 292 295 302 337 347 324 335 274 247 248 236 235 213 192 181 240 217 197 215 191 208 215 219 227 232 229 226 222 221 222 222 224 222 220 213 208 207 219 212 210 216 218
339 337 336 316 267 298 305 314 329 313 302 243 268 241 231 231 211 245 203 223 221 207 224 219 223 218 218 225 223 229 221 222 223 224 227 226 220 208 216 210 211 214 211 212 216